Retour au catalogue

FENGYUN 1C DEB

ActifSSO
NORAD 37438·DEBRIS·🇨🇳 China

Lancé May 10, 1999 depuis Taiyuan Satellite Launch Center

Loading…

Prochains Passages (prochaines 24 heures)

TLE

FraisSource: Space-Track

Époque: Sep 13, 2026, 08:14 UTC

1 37438U 99025EHG 26256.34332138  .00000701  00000-0  37516-3 0  9991
2 37438  98.7143 294.6608 0029690 155.1817 205.0793 14.16101687640212

Suivez FENGYUN 1C DEB en temps réel avec AllMySat

Download on the App Store